Regional Weather Roundup
Issued by NWS

Home | Current Version | Previous Version | Graphics & Text | Print | Product List | Glossary On
Versions: 1 2 3 4 5 6 7 8 9 10 11 12 13 14 15 16 17 18 19 20 21 22 23 24 25 26 27 28 29 30 31 32 33 34 35 36 37 38 39 40 41 42 43 44 45 46 47 48 49 50
000
ASUS43 KMKX 231420
RWRWI

WISCONSIN REGIONAL WEATHER ROUNDUP
NATIONAL WEATHER SERVICE MILWAUKEE/SULLIVAN WI
800 AM CST FRI FEB 23 2018

NOTE: "FAIR" INDICATES FEW OR NO CLOUDS BELOW 12,000 FEET WITH NO
SIGNIFICANT WEATHER AND/OR OBSTRUCTIONS TO VISIBILITY.

WIZ001-002-006>008-014>016-023>028-231500-
NORTHWEST WISCONSIN

CITY           SKY/WX    TMP DP  RH WIND       PRES   REMARKS
SUPERIOR ARPT  LGT SNOW  24  24  97 CALM      30.03F
ASHLAND        CLOUDY    24  24 100 CALM      30.02S
HAYWARD        LGT SNOW  26  24  92 CALM      30.00F FOG
SIREN          CLOUDY    26  25  96 CALM      30.04R
CUMBERLAND     CLOUDY    27  25  93 SW3       30.01S FOG
RICE LAKE      CLOUDY    27  26  99 CALM      30.03F FOG
CHETEK         CLOUDY    26  26  99 CALM      30.02F FOG
LADYSMITH      CLOUDY    29  28  97 SW5       30.02F FOG     WCI  24
EAU CLAIRE     CLOUDY    29  28  96 SW6       30.04S FOG     WCI  23
MENOMONIE      CLOUDY    29  29  99 SW6       30.05S FOG     WCI  23
NEW RICHMOND   CLOUDY    27  25  94 W7        30.04S FOG     WCI  19
OSCEOLA        CLOUDY    27  27 100 W6        30.08S WCI  20
$$

WIZ003>005-009-010-017-018-231500-
NORTH CENTRAL WISCONSIN

CITY           SKY/WX    TMP DP  RH WIND       PRES   REMARKS
MANITOWISH WTR CLOUDY    26  26 100 S5        29.96R WCI  20
ARBOR VITAE    CLOUDY    29  28  94 S5        29.96R WCI  24
WOODRUFF       CLOUDY    29  28  94 S5        29.96R WCI  24
RHINELANDER    CLOUDY    29  28  96 SW5       29.97S WCI  24
EAGLE RIVER    CLOUDY    28  28  99 W3        29.96R
LAND O LAKES   FLURRIES  28  27  94 CALM      29.97S
PHILLIPS       CLOUDY    28  28 100 SW6       29.98S FOG     WCI  21
TOMAHAWK       CLOUDY    28  27  96 CALM      29.99R FOG
MEDFORD        MIX PCPN  29  28  97 SW6       29.99R WCI  23
MERRILL        CLOUDY    30  30 100 CALM      30.00S FOG
$$

WIZ029-030-035-036-043>047-231500-
CENTRAL WISCONSIN

CITY           SKY/WX    TMP DP  RH WIND       PRES   REMARKS
WAUSAU         LGT SNOW  31  31 100 SW8       29.98F FOG     WCI  23
MOSINEE        LGT SNOW  32  32 100 S6        30.01S VSB 1   WCI  26
MARSHFIELD     LGT SNOW  32  31  96 SW8       30.00R FOG     WCI  25
STEVENS POINT  MIX PCPN  31  31 100 SW6       30.01F WCI  25
WAUPACA        FOG       35  33  94 S3        30.03S VSB 1
WAUTOMA        MIX PCPN  33  31  92 SW3       30.04S VSB 1
WISC RAPIDS    CLOUDY    32  30  92 SW7       30.04R FOG     WCI  26
CAMP DOUGLAS   DRIZZLE   34  34 100 W10       30.04R WCI  26
$$

WIZ011>013-019>022-031-037>040-048>050-231500-
NORTHEAST WISCONSIN

CITY           SKY/WX    TMP DP  RH WIND       PRES   REMARKS
ANTIGO         CLOUDY    29  29 100 S3        29.99S FOG
SHAWANO        CLOUDY    34  32  93 CALM      30.02F FOG
OCONTO         CLOUDY    32  32 100 CALM      30.03F
STURGEON BAY   LGT RAIN  34  33  96 S14       30.03F FOG     WCI  25
GREEN BAY      CLOUDY    34  32  92 S6        30.03S FOG     WCI  29
MANITOWOC      MIX PCPN  36  36 100 S9        30.04F FOG     WCI  29
APPLETON       CLOUDY    34  34 100 SW6       30.01S FOG     WCI  29
CLINTONVILLE   FOG       32  32  99 CALM      30.02F VSB 3/4
OSHKOSH        CLOUDY    35  34  96 S8        30.03S FOG     WCI  29
$$

WIZ032>034-041-042-053>061-231500-
SOUTHWEST WISCONSIN

CITY           SKY/WX    TMP DP  RH WIND       PRES   REMARKS
LA CROSSE      CLOUDY    35  31  85 W10       30.09R WCI  27
SPARTA         LGT SNOW  32  32 100 W9        30.08R WCI  24
VIROQUA        CLOUDY    32  32 100 W14G21    30.07R WCI  22
BOSCOBEL       CLOUDY    36  32  85 W9G21     30.11R WCI  29
PRAIRIE DU CHI CLOUDY    33  32  96 W17G23    30.12R WCI  22
PLATTEVILLE    CLOUDY    34  34 100 W15       30.11R WCI  24
$$

WIZ056-057-062-063-064-067-068-231500-
SOUTH CENTRAL WISCONSIN

CITY           SKY/WX    TMP DP  RH WIND       PRES   REMARKS
REEDSBURG      CLOUDY    34  34 100 W15G21    30.06R WCI  24
BARABOO/DELLS  CLOUDY    34  34  98 W14G22    30.05R WCI  25
LONE ROCK      CLOUDY    35  34  96 W12       30.09R FOG     WCI  27
MINERAL POINT  CLOUDY    34 N/A N/A W13G18    30.07R WCI  25
MADISON        CLOUDY    37  36  96 VRB6      30.07R FOG     WCI  32
MIDDLETON      CLOUDY    37  37 100 W9        30.06R WCI  31
WATERTOWN      CLOUDY    36  36 100 SW7       30.05R FOG     WCI  30
MONROE         CLOUDY    36  36 100 W23       30.07R FOG     WCI  24
JANESVILLE     CLOUDY    39  39 100 SW10      30.07R FOG     WCI  32
$$

WIZ051-052-058>065-066-070>072-231500-
SOUTHEAST WISCONSIN

CITY           SKY/WX    TMP DP  RH WIND       PRES   REMARKS
MILWAUKEE      CLOUDY    37  36  96 S8        30.05F FOG     WCI  31
WAUKESHA       CLOUDY    34  34 100 S6        30.06F FOG     WCI  29
MILWAUKEE/TIMM CLOUDY    36  34  93 S5        30.06F FOG     WCI  32
RACINE         CLOUDY    37  37 100 S6        30.07F FOG     WCI  32
BURLINGTON     CLOUDY    38  37  97 SW8       30.06R FOG     WCI  32
KENOSHA        FOG       38  37  97 S6        30.06F VSB 1   WCI  33
FOND DU LAC    CLOUDY    37  34  89 SW10      30.03S FOG     WCI  30
SHEBOYGAN      CLOUDY    35  35 100 S8        30.04F FOG     WCI  29
WEST BEND      CLOUDY    34  34 100 SW5       30.04S FOG     WCI  30
JUNEAU         CLOUDY    34  34  99 S7        30.05R FOG     WCI  28
$$

LSZ147-162-231500-
LAKE SUPERIOR

STATION/POSITION TIME  TEMP    WIND        PRES    WAVE
                       AIR SEA DIR/SP/G            HT/PER
                 (UTC) (F)     (DEG/KT/KT) (MB)    (FT/S)
DEVILS ISLAND    1400   26     160/  4/  6 1017.7F
SAXON HARBOR     1330   25        CALM     1016.3R
$$

LMZ867-665-643>646-231500-
LAKE MICHIGAN

STATION/POSITION TIME  TEMP    WIND        PRES    WAVE
                       AIR SEA DIR/SP/G            HT/PER
                 (UTC) (F)     (DEG/KT/KT) (MB)    (FT/S)
NORTHPORT PIER   1340   33                 1016.9F
KEWAUNEE LAKESHO 1400   35     190/ 10/ 13 1016.5
SHEBOYGAN LAKESH 1400   35     200/ 13/ 14 1017.8F
PORT WASHINGTON  1340   35     180/  6/  8 1018.3F
KENOSHA   LAKESH 1400   35     190/  2/  6 1018.3
$$

TC  - TEMPERATURE IN CELSIUS
VSB - VISIBILITY IN STATUTE MILES
WCI - WIND CHILL INDEX
HX  - HEAT INDEX




USA.gov is the U.S. government's official web portal to all federal, state and local government web resources and services.